YAOGAN 11

Satellite information

Favourite Embed

Satellite Type and Status

PAYLOADIN ORBIT

Key statistics

Satellite YAOGAN 11 at a glance.

Uptime

5562

Days in orbit

Revolutions

≈ 14.8

Per day

Orbit

SSO

Sun Synchronous Orbit

Inclination

98.4

Latest

Satellite identification and parameters

Extended collection of information and parameters for YAOGAN 11.

Object identification

Identified? True

Debris? False

Object name: YAOGAN 11

International designator: 2010-047A

Object number (NORAD): 37165

Object ID (CCSDS): 37165

Country: PEOPLES REPUBLIC OF CHINA (PRC)

Current information (Y/N): Y

RCS size: LARGE

Orbital parameters

Period: 97.188 minutes

Inclination: 98.4063 deg

SMA: 7002.204 km

Apoapsis: 649.278 km

Periapsis: 598.859 km

RAAN: 199.6675 deg

Eccentricy: 0.00360017

Argument of periapsis: 117.3164 deg

Mean anomaly: 243.172 deg

Mean motion: 14.81667182 rev/day

Mean motion (dot): 0.00001549 rev/day2

B* drag term: 0.00020215342 1/REarth

Two-line elements (TLE)

Creation date: Dec. 14, 2025, 3:07 a.m.

Reference frame: TEME

Reference center: EARTH

Epoch: Dec. 13, 2025, 1:38 p.m. UTC

TLE line 0: 0 YAOGAN 11

TLE line 1: 1 37165U 10047A 25347.56842943 .00001549 00000-0 20215-3 0 9998

TLE line 2: 2 37165 98.4063 199.6675 0036002 117.3164 243.1720 14.81667182820600

Live tracking on map

Real-time ground track for satellite YAOGAN 11.

In-orbit conjunctions

There are no conjunctions computed for YAOGAN 11, at the moment. Check back to stay up to date, as we update our databases every day.

Go to all conjunctions

Associated space launch

YAOGAN 11 was lifted into orbit during the mission ‘Long March 2D | Yaogan-11, Zheda Pixing 1B & Zheda Pixing 1C’, on board a Long March 2D space rocket.

The launch took place on Sept. 22, 2010, 2:42 a.m. from Launch Area 94 (SLS-2 / 603).

For more information about the launch, click the button.

Launch to space Long March 2D | Yaogan-11, Zheda Pixing 1B & Zheda Pixing 1C
Long March 2D | Yaogan-11, Zheda Pixing 1B & Zheda Pixing 1C

Agency: N/A

Status: Launch Successful

Launch date: Sept. 22, 2010, 2:42 a.m. UTC

Rocket: Long March 2D

Launch pad: Launch Area 94 (SLS-2 / 603)

Location: Jiuquan Satellite Launch Center, People's Republic of China

...

Latest news about this satellite

There are no fresh news available about this satellite. Check back as we update our databases every day.


Newsletter sign-up

Weekly statistics, charts and insights to help you stay on top of the space industry.